Location: ????????
(55.7667°N, 37.4833°E)
Time: 13:53:07
(UTC+00:00)

ASTEX 1 - Pass Details

Date: 19 May 2025
Orbit: 715 x 734 km, 92.7° (Epoch: 21 June)

Event Time Altitude Azimuth Distance (km) Brightness Sun altitude
Rises 21:36:22 0° 5° (N) 3,163 8.7 -14.2°
Reaches altitude 10° 21:38:40 10° 5° (N) 2,240 7.4 -14.2°
Maximum altitude 21:43:38 87° 277° (W) 741 3.4 -14.2°
Enters shadow 21:46:54 22° 190° (S) 1,579 4.5 -14.1°
